IGO223 VAAH-VIDP

Flight info

Callsign IGO223
Flight time N/A
Altitude 37000
Route UUD1B UUD A347 UKASO UKASO7G
Aircraft A20N/M-SDE2E3FGHIJ1RWXY/LB1

Departure

Time N/A
Airport Sardar Vallabh Patel International Airport (VAAH)

Arrival

Time 2026-05-05 19:25
Airport Indira Gandhi International Airport (VIDP)
Time Latitude Longitude Altitude Speed Heading
2026-05-05 19:25 28.56006 77.10738 785 ft 11 kts 284°
2026-05-05 19:25 28.56028 77.10648 785 ft 11 kts 285°
2026-05-05 19:25 28.56050 77.10556 785 ft 12 kts 285°
2026-05-05 19:25 28.56071 77.10459 785 ft 12 kts 284°
2026-05-05 19:26 28.56094 77.10360 785 ft 13 kts 284°
2026-05-05 19:26 28.56118 77.10257 785 ft 13 kts 284°
2026-05-05 19:26 28.56142 77.10153 785 ft 13 kts 284°
2026-05-05 19:26 28.56166 77.10047 785 ft 14 kts 284°
2026-05-05 19:27 28.56191 77.09939 785 ft 14 kts 284°
2026-05-05 19:27 28.56215 77.09836 785 ft 7 kts 284°
2026-05-05 19:27 28.56216 77.09832 785 ft 0 kts 284°
2026-05-05 19:33 28.56216 77.09830 785 ft 0 kts 285°
2026-05-05 19:33 28.56222 77.09806 785 ft 7 kts 285°
2026-05-05 19:34 28.56223 77.09726 785 ft 10 kts 212°
2026-05-05 19:34 28.56115 77.09685 785 ft 21 kts 196°
2026-05-05 19:34 28.56004 77.09647 785 ft 15 kts 223°
2026-05-05 19:35 28.56027 77.09433 785 ft 14 kts 284°
2026-05-05 19:35 28.56055 77.09313 785 ft 16 kts 284°
2026-05-05 19:35 28.56086 77.09180 785 ft 18 kts 284°
2026-05-05 19:35 28.56119 77.09036 785 ft 19 kts 285°
2026-05-05 19:36 28.56155 77.08884 785 ft 20 kts 285°
2026-05-05 19:36 28.56193 77.08723 785 ft 21 kts 285°
2026-05-05 19:36 28.56228 77.08566 785 ft 19 kts 285°
2026-05-05 19:36 28.56262 77.08424 785 ft 17 kts 284°
2026-05-05 19:37 28.56276 77.08349 785 ft 7 kts 267°
2026-05-05 19:37 28.56250 77.08303 785 ft 5 kts 204°
2026-05-05 19:37 28.56214 77.08288 785 ft 4 kts 201°
2026-05-05 19:37 28.56185 77.08273 785 ft 4 kts 216°
2026-05-05 19:38 28.56165 77.08250 785 ft 4 kts 237°
2026-05-05 19:38 28.56164 77.08247 785 ft 0 kts 238°